Regional Weather Roundup
Issued by NWS

Home | Current Version | Previous Version | Graphics & Text | Print | Product List | Glossary Off
Versions: 1 2 3 4 5 6 7 8 9 10 11 12 13 14 15 16 17 18 19 20 21 22 23 24 25 26 27 28 29 30 31 32 33 34 35 36 37 38 39 40 41 42 43 44 45 46 47 48 49 50

000
ASUS43 KMKX 261900
RWRWI

WISCONSIN REGIONAL WEATHER ROUNDUP
NATIONAL WEATHER SERVICE MILWAUKEE/SULLIVAN WI
100 PM CST SUN FEB 26 2017

NOTE: "FAIR" INDICATES FEW OR NO CLOUDS BELOW 12,000 FEET WITH NO
SIGNIFICANT WEATHER AND/OR OBSTRUCTIONS TO VISIBILITY.

WIZ001-002-006>008-014>016-023>028-262000-
NORTHWEST WISCONSIN

CITY           SKY/WX    TMP DP  RH WIND       PRES   REMARKS
SUPERIOR ARPT  MOSUNNY   24  14  66 NW16      29.78R WCI  11
ASHLAND        LGT SNOW  26  20  77 NW14G25   29.72R WCI  14
HAYWARD        CLOUDY    33  15  47 W12G26    29.70S WCI  24
SIREN          CLOUDY    32  18  56 NW14G23   29.75R WCI  22
CUMBERLAND     CLOUDY    32  19  59 W15G22    29.73S WCI  22
RICE LAKE      CLOUDY    33  23  68 SW15      29.76S WCI  23
CHETEK         CLOUDY    32  23  68 W9G21     29.75S WCI  24
LADYSMITH      CLOUDY    33  22  65 SW13      29.73S WCI  23
EAU CLAIRE     NOT AVBL
MENOMONIE      MOSUNNY   35  23  61 SW14      29.79R WCI  25
NEW RICHMOND   MOSUNNY   35  20  55 W16G22    29.76F WCI  24
OSCEOLA        CLOUDY    37  23  56 W10G22    29.79S WCI  30
$$

WIZ003>005-009-010-017-018-262000-
NORTH CENTRAL WISCONSIN

CITY           SKY/WX    TMP DP  RH WIND       PRES   REMARKS
MANITOWISH WTR FLURRIES  28  21  76 SW12G18   29.63F WCI  18
ARBOR VITAE    CLOUDY    32  23  71 SW10G18     N/A  WCI  23
WOODRUFF       CLOUDY    32  23  71 SW10G18     N/A  WCI  23
RHINELANDER    CLOUDY    32  21  64 SW15G26   29.66F WCI  22
EAGLE RIVER    CLOUDY    28  19  69 SW12      29.64F WCI  18
LAND O LAKES   CLOUDY    29  21  71 SW10G20   29.65S WCI  20
PHILLIPS       CLOUDY    30  21  69 SW12      29.68S WCI  20
TOMAHAWK       PTSUNNY   32  19  60 S7        29.69F WCI  25
MEDFORD        PTSUNNY   29  20  69 SW9G16    29.72S WCI  21
MERRILL        NOT AVBL
$$

WIZ029-030-035-036-043>047-262000-
CENTRAL WISCONSIN

CITY           SKY/WX    TMP DP  RH WIND       PRES   REMARKS
WAUSAU         CLOUDY    32  21  64 SW12      29.73S WCI  23
MOSINEE        PTSUNNY   34  21  60 W17G24    29.75F WCI  23
MARSHFIELD     CLOUDY    33  20  58 W13       29.74F WCI  24
STEVENS POINT  PTSUNNY   34  20  55 W13G21    29.76S WCI  25
WAUPACA        SUNNY     40  22  48 SW13G21   29.78F WCI  33
WAUTOMA        SUNNY     38  22  52 SW14G24   29.79F WCI  30
WISC RAPIDS    SUNNY     38  19  46 W15G23    29.78S WCI  29
CAMP DOUGLAS   NOT AVBL
$$

WIZ011>013-019>022-031-037>040-048>050-262000-
NORTHEAST WISCONSIN

CITY           SKY/WX    TMP DP  RH WIND       PRES   REMARKS
ANTIGO         CLOUDY    31  21  66 W21       29.71S WCI  18
SHAWANO        MOSUNNY   38  22  51 SW15      29.75S WCI  30
OCONTO         SUNNY     34  21  59 SW15G22   29.76F WCI  24
STURGEON BAY   SUNNY     34  22  61 SW18G24   29.76F WCI  23
GREEN BAY      SUNNY     36  24  62 SW13      29.77F WCI  27
MANITOWOC      NOT AVBL
APPLETON       MOSUNNY   36  21  55 SW17G23   29.76F WCI  25
CLINTONVILLE   SUNNY     36  21  55 W14G20    29.77F WCI  27
OSHKOSH        SUNNY     36  23  59 SW12G20   29.79F WCI  28
$$

WIZ032>034-041-042-053>061-262000-
SOUTHWEST WISCONSIN

CITY           SKY/WX    TMP DP  RH WIND       PRES   REMARKS
LA CROSSE      SUNNY     39  25  57 SW13G21   29.83S WCI  31
SPARTA         SUNNY     38  23  54 W13G21    29.82S WCI  31
VIROQUA        SUNNY     37  25  62 SW12      29.82S WCI  29
BOSCOBEL       SUNNY     40  25  55 SW15G21   29.87F WCI  32
PRAIRIE DU CHI SUNNY     38  26  62 SW9       29.88S WCI  32
PLATTEVILLE    SUNNY     39  30  70 SW16      29.89F WCI  30
$$

WIZ056-057-062-063-064-067-068-262000-
SOUTH CENTRAL WISCONSIN

CITY           SKY/WX    TMP DP  RH WIND       PRES   REMARKS
REEDSBURG      SUNNY     37  25  60 SW10G20   29.83F WCI  30
BARABOO/DELLS  SUNNY     37  23  57 SW12G18   29.82F WCI  29
LONE ROCK      NOT AVBL
MINERAL POINT  SUNNY     37  30  75 SW14      29.86F WCI  29
MADISON        MOSUNNY   38  25  59 W13G22    29.86S WCI  30
MIDDLETON      SUNNY     39  29  66 SW13      29.86F WCI  32
WATERTOWN      SUNNY     38  28  67 SW15G22   29.86S WCI  29
MONROE         SUNNY     39  27  60 W25G31    29.88S WCI  28
JANESVILLE     MOSUNNY   45  27  49 W20G25    29.89S
$$

WIZ051-052-058>065-066-070>072-262000-
SOUTHEAST WISCONSIN

CITY           SKY/WX    TMP DP  RH WIND       PRES   REMARKS
MILWAUKEE      MOSUNNY   42  22  44 W21G32    29.88R
WAUKESHA       MOSUNNY   37  25  60 SW23G35   29.87S WCI  26
MILWAUKEE/TIMM MOSUNNY   39  23  52 SW24G30   29.87S WCI  28
RACINE         SUNNY     43  23  45 SW24G35   29.90S
KENOSHA        SUNNY     42  25  50 SW26G36   29.88F
FOND DU LAC    SUNNY     36  23  59 SW12G24   29.81F WCI  28
SHEBOYGAN      SUNNY     36  24  62 SW22G29   29.82S WCI  25
WEST BEND      SUNNY     36  27  69 SW15G26   29.83S WCI  26
JUNEAU         SUNNY     35  26  68 SW16G22   29.86S WCI  25
$$

LSZ147-162-262000-
LAKE SUPERIOR

STATION/POSITION TIME  TEMP    WIND        PRES    WAVE
                       AIR SEA DIR/SP/G            HT/PER
                 (UTC) (F)     (DEG/KT/KT) (MB)    (FT/S)
DEVILS ISLAND    1800   24     300/ 19/ 22 1006.4R
PORT WING        1840   25     300/ 16/ 20 1007.5R
SAXON HARBOR     1840   32     220/  9/ 18 1005.1S
$$

LMZ867-665-643>646-262000-
LAKE MICHIGAN

STATION/POSITION TIME  TEMP    WIND        PRES    WAVE
                       AIR SEA DIR/SP/G            HT/PER
                 (UTC) (F)     (DEG/KT/KT) (MB)    (FT/S)
CHAMBERS ISLAND  1840   33     190/  8/ 19 1007.1F
NORTHPORT PIER   1840   34     210/  8/ 21 1007.1F
SISTER BAY       1805   36        CALM       N/A
ALGOMA LAKESHORE 1641          230/ 22/ 26   N/A
KEWAUNEE LAKESHO 1830   35     230/ 14/ 20 1008.5F
SHEBOYGAN LAKESH 1800   35     230/ 21/ 25 1010.7F
PORT WASHINGTON  1830   40     250/ 16/ 24 1011.5S
MILWAUKEE LAKESH 1830   39     230/ 23/ 29   N/A
KENOSHA   LAKESH 1800   40     230/ 23/ 36 1013.2
$$

TC  - TEMPERATURE IN CELSIUS
VSB - VISIBILITY IN STATUTE MILES
WCI - WIND CHILL INDEX
HX  - HEAT INDEX





USA.gov is the U.S. government's official web portal to all federal, state and local government web resources and services.